Regional Weather Roundup
Issued by NWS Kansas City/Pleasant Hill, MO

Home | Current Version | Previous Version | Graphics & Text | Print | Product List | Glossary Off
Versions: 1 2 3 4 5 6 7 8 9 10 11 12 13 14 15 16 17 18 19 20 21 22 23 24 25 26 27 28 29 30 31 32 33 34 35 36 37 38 39 40 41 42 43 44 45 46 47 48 49 50

806
ASUS43 KEAX 281010
RWREAX

WEATHER ROUNDUP FOR EASTERN KANSAS AND NORTHWEST MISSOURI
NATIONAL WEATHER SERVICE KANSAS CITY/PLEASANT HILL MO
500 AM CDT WED SEP 28 2016

KSZ040-057-103>105-MOZ028-029-037-043-281100-
...KANSAS CITY METROPOLITAN AREA...

CITY           SKY/WX    TMP DP  RH WIND       PRES   REMARKS
K.C. INTL      CLEAR     57  52  83 NW9       29.89R
K.C. DOWNTOWN  CLEAR     60  56  86 CALM      29.87R
LEES SUMMIT    CLEAR     59  54  83 W5        29.87R
OLATHE - IXD   CLEAR     58  55  90 NW8       29.89R
OLATHE - OJC   CLEAR     61  54  77 NW6       29.88R
LAWRENCE       CLEAR     55  54  96 W8        29.89R

$$

MOZ001>008-011>017-020>025-030>033-038>040-044>046-053-054-281100-
...NORTHERN AND CENTRAL MISSOURI...

CITY           SKY/WX    TMP DP  RH WIND       PRES   REMARKS
ST. JOSEPH     CLEAR     53  50  89 N8        29.90R
MOSBY          SUNNY     52  52 100 CALM      29.88R
WHITEMAN AFB   CLEAR     58  58  98 W3        29.84S
CLINTON        CLEAR     57  54  88 CALM      29.87R
SEDALIA        PTCLDY    60  54  80 W5        29.86R
WARSAW         NOT AVBL
CHILLICOTHE      N/A     57  48  72 N7        29.89R
KIRKSVILLE     PTCLDY    53  43  68 N7        29.87R

$$

MOZ041-047>049-056>058-063>065-088>090-097-281100-
...EASTERN AND SOUTHERN MISSOURI...

CITY           SKY/WX    TMP DP  RH WIND       PRES   REMARKS
ST. LOUIS INTL MOCLDY    64  53  67 W10       29.80R
SPIRIT OF STL  CLOUDY    61  54  77 W3        29.79S
COLUMBIA       CLEAR     60  55  83 W7        29.83R
JEFFERSON CITY MOCLDY    60  55  83 CALM      29.83S
ROLLA          CLEAR     56  50  80 S9        29.84S
OSAGE BEACH    CLEAR     60  53  77 W3        29.86S
SPRINGFIELD    CLEAR     61  48  62 SW9       29.89F
BRANSON        CLEAR     63  46  55 SW7       29.93F
JOPLIN         CLEAR     65  49  56 SW15      29.91S
WEST PLAINS    CLEAR     55  49  80 SW5       29.92F

$$

IAZ060-094-KSZ022-034>040-054-083-096-NEZ052-066-093-281100-
...KANSAS...SOUTHEAST NEBRASKA AND IOWA...

CITY           SKY/WX    TMP DP  RH WIND       PRES   REMARKS
TOPEKA         CLEAR     58  53  84 NW3       29.90R
MANHATTAN      CLEAR     53  50  89 CALM      29.93R
EMPORIA        CLEAR     59  55  87 NW6       29.91R
CHANUTE        CLEAR     61  52  72 SW6       29.89S
WICHITA        CLEAR     60  53  77 W7        29.92R
OMAHA          CLEAR     48  43  82 N7        29.99R
LINCOLN        CLEAR     53  45  74 N9        30.01R
FALLS CITY     CLEAR     54  49  83 NW7       29.93R
LAMONI         CLOUDY    53  44  71 N9        29.91R
DES MOINES     PTCLDY    54  44  69 N12       29.94R

$$





USA.gov is the U.S. government's official web portal to all federal, state and local government web resources and services.